Regional Weather Roundup
Issued by NWS

Home | Current Version | Previous Version | Text Only | Print | Product List | Glossary Off
Versions: 1 2 3 4 5 6 7 8 9 10 11 12 13 14 15 16 17 18 19 20 21 22 23 24 25 26 27 28 29 30 31 32 33 34 35 36 37 38 39 40 41 42 43 44 45 46 47 48 49 50

138
ASUS44 KJAN 010303
RWRMS

MISSISSIPPI HOURLY WEATHER ROUNDUP
NATIONAL WEATHER SERVICE JACKSON MS
1000 PM CDT SUN AUG 31 2014

NOTE: "FAIR: INDICATES FEW OR NO CLOUDS BELOW 12,000 FEET WITH NO
SIGNIFICANT WEATHER AND/OR OBSTRUCTIONS TO VISIBILITY.

MSZ001>002-007>008-010>013-018>021-025>028-034>036-010400-
NORTHWEST MISSISSIPPI

CITY           SKY/WX    TMP DP  RH WIND       PRES   REMARKS
CLARKSDALE     CLOUDY    77  77 100 CALM      30.00F
CLEVELAND      FAIR      79  76  92 S7        30.00S
GREENWOOD      MOCLDY    77  75  93 CALM      30.02F
GREENVILLE     PTCLDY    78  75  90 S6        30.00S
GRENADA        FAIR      77  73  88 S3        30.03F
OLIVE BRANCH   CLEAR     75  75 100 S7        30.01S
OXFORD         FAIR      75  72  88 CALM      30.05S
TUNICA         CLEAR     75  72  88 SE5       29.99F
$$

MSZ003>006-009-014>017-022>024-029>033-037>039-010400-
NORTHEAST MISSISSIPPI

CITY           SKY/WX    TMP DP  RH WIND       PRES   REMARKS
BELMONT        MOCLDY    77  75  94 CALM      30.06F
COLUMBUS AFB   CLOUDY    76  73  91 SE5       30.05S
CORINTH        FAIR      75  72  88 S5        30.03F
GOLDN TRIANGLE CLOUDY    77  70  78 S5        30.06S
STARKVILLE     FAIR      75  73  94 S3        30.05S
TUPELO         MOCLDY    78  75  90 S5        30.04F
$$

MSZ040-058-010400-
CENTRAL MISSISSIPPI

CITY           SKY/WX    TMP DP  RH WIND       PRES   REMARKS
JACKSON INTL   MOCLDY    79  77  94 SE8       30.04S
JACKSON HAWKNS PTCLDY    79  75  87 S5        30.04S
MERIDIAN KEY   MOCLDY    78  74  87 CALM      30.07R
MERIDIAN NAS   MOCLDY    78  75  90 E5        30.07R
RAYMOND        HAZE      75  72  88 CALM      30.04S VSB 3/4
VICKSBURG      PTCLDY    77  75  93 CALM      30.02S
$$

MSZ059>079-010400-
SOUTH MISSISSIPPI

CITY           SKY/WX    TMP DP  RH WIND       PRES   REMARKS
BROOKHAVEN     FAIR      75  73  94 CALM      30.08S
HATTIESBURG    PTCLDY    79  73  82 CALM      30.08R
MCCOMB         PTCLDY    77  72  84 SE6       30.06S
NATCHEZ        MOCLDY    81  75  83 SE8       30.03S
PINE BELT      CLEAR     75  70  83 CALM      30.09S
$$

MSZ080>082-010400-
COASTAL MISSISSIPPI

CITY           SKY/WX    TMP DP  RH WIND       PRES   REMARKS
BILOXI         PTCLDY    84  75  73 S7        30.08R HX  92
PASCAGOULA     CLEAR     75  74  96 CALM      30.08R
GULFPORT       PTCLDY    84  74  71 S5        30.07R HX  91
$$



USA.gov is the U.S. government's official web portal to all federal, state and local government web resources and services.